Regional Weather Roundup
Issued by NWS Newport/Morehead, NC

Current Version | Previous Version | Graphics & Text | Print | Product List | Glossary Off
Versions: 1 2 3 4 5 6 7 8 9 10 11 12 13 14 15 16 17 18 19 20 21 22 23 24 25 26 27 28 29 30 31 32 33 34 35 36 37 38 39 40 41 42 43 44 45 46 47 48 49 50
000 ASUS42 KMHX 241014 RWRMHX WEATHER ROUNDUP FOR EASTERN NORTH CAROLINA NATIONAL WEATHER SERVICE NEWPORT/MOREHEAD CITY NC 600 AM EDT SAT JUN 24 2017 NOTE: "FAIR" INDICATES FEW OR NO CLOUDS BELOW 12,000 FEET WITH NO SIGNIFICANT WEATHER AND/OR OBSTRUCTIONS TO VISIBILITY NCZ015>017-031-032-045>047-102-103-241100- NORTH COAST CITY SKY/WX TMP DP RH WIND PRES REMARKS EDENTON CLEAR 80 72 76 SW18G28 29.83S ELIZABETH CITY CLEAR 79 72 79 SW22G31 29.80S KITTY HAWK SUNNY 79 71 78 SW10G23 29.81F MANTEO CLEAR 79 73 83 SW24G30 29.84F $$ NCZ045>047-081-094-103-104-241100- CENTRAL COAST CITY SKY/WX TMP DP RH WIND PRES REMARKS FRISCO CLEAR 79 74 84 SW17G28 29.90S $$ NCZ095-097-098-100-101-241100- SOUTHERN COAST CITY SKY/WX TMP DP RH WIND PRES REMARKS BEAUFORT CLOUDY 80 78 94 SW25 29.92S CEDAR ISLAND NOT AVBL JACKSONVILLE PTCLDY 79 75 87 SW13G18 29.90S PINEY ISLAND MOSUNNY N/A N/A N/A SW23G37 29.90S WILMINGTON MOCLDY 80 75 84 SW18G26 29.93S $$ NCZ011>013-027>030-043-044-078>080-089-090>093-098-241100- COASTAL PLAIN CITY SKY/WX TMP DP RH WIND PRES REMARKS AHOSKIE N/A 77 71 82 S6 29.80R CLINTON PTCLDY 77 74 91 SW8 29.92R ELIZABETHTOWN NOT AVBL GOLDSBORO PTCLDY 77 76 98 SW13 29.87R GREENVILLE PTCLDY 79 72 78 SW14G24 29.88R HAVELOCK MOCLDY 80 74 81 SW23G30 29.91S KENANSVILLE PTCLDY 77 73 88 SW6 29.90R KINSTON CLOUDY 78 73 83 SW14G21 29.89R NEW BERN CLEAR 78 74 87 SW14G23 29.90S RICHLANDS PTCLDY 78 74 87 SW12 29.92R ROCKY MOUNT LGT RAIN 77 73 87 SW17G24 29.85R WASHINGTON PTCLDY N/A N/A N/A SW14G20 29.87R WHITEVILLE CLEAR 78 73 83 SW9G17 29.93R $$ AMZ130-135-150-152-154-156-158-170-250-252-270-ANZ085-086-088-633-658-670-241100- MARINE OBSERVATIONS STATION/POSITION TIME TEMP WIND PRES WAVE SWELL AIR SEA DIR/SP/G HT/PER HT/PER (UTC) (F) (DEG/KT/KT) (MB) (FT/S) (FT/S) CHESAPEAKE LIGHT NOT AVBL 64 E VA BEACH 0950 74 71 210/ 21/ 25 1009.1 7/ 7 2/ 9 DUCK 0948 80 61 210/ 26/ 33 1008.7 2 E DUCK NOT AVBL OREGON INLET 0942 80 81 210/ 27/ 34 1010.6 13E OREGON INLT 0948 67 N/A 6/ 5 2/ 8 HATTERAS CG 0942 78 78 220/ 16/ 23 1012.3 DIAMOND BUOY 0950 80 79 230/ 23/ 27 1012.4 7/ 7 CAPE LOOKOUT 1000 80 220/ 16/ 20 1013.1 BEAUFORT LAB 0948 80 78 220/ 9/ 16 1012.4 30 SE NEW RVR IN 0908 80 80 230/ 19/ 25 1013.8 30 SE NEW RVR IN 0943 80 N/A 8/ 7 2/11 27 SE WRIGHTSVLE 0908 79 79 220/ 21/ 29 1013.2 5 SE WRIGHTSVLE 0908 80 78 220/ 16/ 27 1013.8 225 S CAPE HAT 0950 81 80 220/ 14/ 16 1017.6 4/ 5 2/ 9 41 SE CHARLESTON 0950 81 81 220/ 21/ 27 1015.1 6/ 6 2/ 9 $$

USA.gov is the U.S. government's official web portal to all federal, state and local government web resources and services.